Погода в Елгаве

Погода в Елгаве : погода сейчас, прогноз погоды и архив. Всё, что Вы хотите узнать о погоде в Елгаве!

Поиск расширенной информации на нашем сайте:

Другие новости

Новости СМИ2

Главная страница сайта

Новости сайта

03.07.2017

Напоминаем, что на нашем специализированном сайте Метеоцентр.Азия вы можете получить высокодетализированные автоматические прогнозы погоды по пунктам России, СНГ и мира в авиационном формате (включающие направление и скорость ветра, видимость, явления погоды, количество и форму облачности, нижнюю и верхнюю границу облачности).


Погода в Елгаве - сегодня

Время (UTC), дата Ветер
(°,м/с) 
Видим.   Явления Облачность Т
(°С)
Тd
(°С)
f(%) Тe
(°С)
Pmin
(гПа)
dP
(гПа)
Po
(мм)
O2
(г/м3)
Тmin Tmax R s Состояние
почвы
18 06.02.18 220 (ЮЗ) 4-6  н/о    н/о 
-3.3 -5.3 86 -6  1012.6  759  310           
21 06.02.18 210 (ЮЗ) 6-7  н/о    н/о 
-3.8 -5.8 86 -8  1013.7  1.1  760  311           
00 07.02.18 220 (ЮЗ) 5-7  н/о    н/о 
-3.4 -5.7 84 -7  1015.1  1.4  761  311           
03 07.02.18 220 (ЮЗ) 4-6  н/о    н/о 
-4 -6.1 85 -7  1016.2  761  312           
06 07.02.18 210 (ЮЗ) 6-7  н/о    н/о 
-3.4 -5.3 87 -8  1017.2  762  312           
09 07.02.18 210 (ЮЗ) 8-10  н/о    н/о 
-3.3 -5.4 85 -8  1018.7  1.6  763  312           
12 07.02.18 210 (ЮЗ) 6-8  н/о    н/о 
-2.5 -5.3 81 -6  1019.9  1.2  764  311           
15 07.02.18 200 (Ю) 6-7  н/о    н/о 
-3.8 -7 78 -8  1020.7  0.8  765  313           
18 07.02.18 170 (Ю) 3-4  н/о    н/о 
-6.2 -9.1 80 -9  1021.8  766  317           
21 07.02.18 160 (Ю) 2-3  н/о    н/о 
-7.7 -11.5 74 -9  1022.6  0.8  766  319           
00 08.02.18 120 (ЮВ) 2-2  н/о    н/о 
-10.9 -12.9 85 -13  1022.7  0.1  766  323           
03 08.02.18 130 (ЮВ) 2-3  н/о    н/о 
-11.7 -13.2 89 -14  1022.4  -0.3  766  324           
06 08.02.18 130 (ЮВ) 2-4  н/о    н/о 
-9.3 -9.9 95 -11  1022.6  0.2  766  321           
09 08.02.18 150 (ЮВ) 3-5  н/о    н/о 
-7.6 -8.3 95 -10  1022.5  -0.1  766  318           
15 08.02.18 070 (В) 1-2  н/о    н/о 
-6.4 -7.1 95 -6  1022.1  -0.1  766  317           
18 08.02.18 тихо () -1  н/о    н/о 
-6.5 -7.2 95 -7  1022.3  0.2  766  317           
21 08.02.18 110 (В) 1-2  н/о    н/о 
-6.3 -7.2 93 -6  1022.3  766  317           
00 09.02.18 160 (Ю) 1-1  н/о    н/о 
-6.3 -7.4 92 -6  1022.4  0.1  766  317           
03 09.02.18 120 (ЮВ) 2-2  н/о    н/о 
-6.2 -7.1 93 -8  1022.6  0.1  766  317           
06 09.02.18 070 (В) 1-1  н/о    н/о 
-5.9 -6.7 94 -6  1022.5  -0.1  766  316           
09 09.02.18 030 (СВ) 2-3  н/о    н/о 
-5.4 -6.2 94 -7  1022.9  0.3  766  316           
12 09.02.18 340 (С) 2-3  н/о    н/о 
-5.5 -6.5 93 -7  1022.9  767  316           
15 09.02.18 030 (СВ) 2-3  н/о    н/о 
-6.2 -7.5 90 -8  1022.7  -0.2  766  317           
18 09.02.18 010 (С) 2-4  н/о    н/о 
-7.7 -8.7 93 -9  1023.2  0.4  767  319           
09 22.02.18 310 (СЗ) 1-1  н/о    н/о 
-15.5 -17.6 84 -16  1032.5  0.7  774  332           
Время (UTC), дата Ветер
(°,м/с) 
Видим.   Явления Облачность Т
(°С)
Тd
(°С)
f(%) Тe
(°С)
Pmin
(гПа)
dP
(гПа)
Po
(мм)
O2
(г/м3)
Тmin Tmax R s Состояние
почвы

Для получения пояснительной информации подведите курсор к названию столбца.

ПОГОДА в Елгаве - архив

Всё, что Вы хотите узнать о погоде в Елгаве - удобно и подробно!

Выберите нужную дату (начиная с 1 января 2015* года) и нажмите кнопку "Найти".
Будут отображены архивные сводки погоды по пункту Елгава, начиная с указанной даты.


Отображать данные в формате CSV (для использования в таблицах Excel)


Внимание! Наш архив погоды предназначен исключительно для личного некоммерческого использования в познавательных целях. Если Вам необходимы официальные справки о состоянии погоды (для производственных, юридических, коммерческих и т.п. целей), обращайтесь в органы Росгидромета.

*Примечание: данная дата относится к архиву по метеостанциям СССР (Россия, СНГ, Балтия).
Архив по метеостанциям Зарубежной Европы и Азии (кроме Китая) хранится 10 дней, по другим регионам земного шара (Китай, Африка, Америка, Австралия, Океания) - 1 день.

Елгава - район местоположения метеостанции


Название, широта, долгота, высота метеостанции:
Елгава 56.6°ш. 23.7°д. 9 м над ур. моря [Латвия]

Дополнительная информация

В oтличие oт бoльшинства пoгoдных сайтoв мы публикуем пoдрoбную метеoинфoрмацию в детальнoм прoфессиoнальнoм фoрмате.

Характеристики температуры и влажнoсти вoздуха измеряются на высoте 2 м в тени вдали oт зданий и деревьев.
Скoрoсть ветра измеряется на высoте 10 м (на урoвне рoста челoвека скoрoсть ветра ниже в 1.5-2 раза). Если метеoстанция нахoдится в гoрoде или в лесу, тo скoрoсть ветра занижена на 2-4 м/с пo сравнению с oткрытым местoм. Скoрoсть ветра над акватoриями крупных рек и oзёр, а также на вершинах хoлмoв на 2-5 м/с выше, чем в oбычных услoвиях.
Атмoсфернoе давление в разных тoчках местнoсти мoжет значительнo oтличаться oт давления на метеoстанции, в зависимoсти oт услoвий рельефа (при пoдъёме на 10 м давление пoнижается примернo на 1 мм рт.ст.).